Theta_e
330 330 330 331 330 330 332 338 348 349 348 348 348 347 346 343 343 343 341 341 340 341 339 341 343 345 348 349 349 349 348 347 347
329 331 331 332 333 333 336 341 349 350 349 349 349 347 347 346 345 344 342 342 342 341 341 343 343 346 348 348 349 349 347 346 346
331 335 338 341 342 343 338 338 347 351 351 349 351 349 348 348 348 346 345 343 342 343 343 345 345 346 346 346 348 349 347 346 348
328 331 333 337 338 341 343 345 343 348 349 349 349 350 349 348 347 347 346 345 346 345 345 343 343 345 345 343 344 348 347 345 346
327 330 331 333 335 336 339 340 343 345 348 347 348 347 348 347 347 346 345 345 345 347 346 344 343 343 342 341 339 339 345 346 348
323 325 325 326 331 332 334 336 337 340 344 345 346 346 346 347 348 347 346 345 346 346 346 344 343 341 341 341 339 334 338 345 346
322 321 322 321 320 323 325 328 332 336 340 342 341 343 343 342 343 345 346 345 345 345 346 343 342 342 341 339 336 333 335 346 345
320 319 319 319 319 319 321 322 323 328 332 334 338 340 340 343 345 346 347 344 344 345 343 346 343 342 341 341 338 336 338 347 346
318 318 319 319 318 318 319 322 322 325 324 325 326 328 334 339 345 344 343 345 343 344 345 344 346 344 343 342 343 339 340 347 348
317 318 317 316 316 317 319 320 323 321 324 324 323 325 329 331 334 339 342 343 345 344 346 346 344 345 345 344 346 339 338 342 348
314 315 317 317 317 318 319 322 322 321 323 323 323 325 325 328 329 332 338 340 340 342 344 345 344 345 346 344 345 336 335 339 345
313 314 315 317 319 319 319 322 323 323 324 324 324 324 324 326 327 331 335 337 338 340 340 341 342 345 345 345 346 332 331 335 340
316 316 318 320 322 322 320 321 324 324 323 324 324 325 326 327 329 330 330 333 335 335 336 337 340 343 345 341 346 333 328 332 344
318 318 319 321 320 320 320 322 323 321 321 322 325 327 328 329 328 329 329 331 332 333 334 334 333 334 338 339 339 337 324 324 337
316 317 319 321 319 319 320 321 321 321 321 325 326 327 328 327 327 328 331 331 331 330 329 329 328 327 329 330 332 324 323 321 325
316 316 317 319 318 319 320 321 321 320 323 325 326 327 326 327 328 329 329 327 327 328 325 324 323 321 321 322 328 329 321 321 322
316 316 318 319 318 318 319 322 323 323 324 326 325 324 325 326 326 326 328 326 329 328 328 327 324 322 322 323 323 326 330 329 328
316 316 317 318 318 319 320 322 322 323 324 325 325 325 326 326 327 326 326 324 326 327 329 328 328 326 325 323 321 323 321 323 327
314 315 316 317 317 318 319 321 322 323 325 325 325 324 325 325 325 326 326 324 323 316 313 312 310 312 321 329 318 312 308 305 306
315 315 316 316 317 318 319 320 320 319 321 322 323 320 322 325 322 325 325 325 323 322 321 307 305 304 305 307 316 304 301 301 303
Wind_Speed
7 5 8 9 10 8 11 12 13 12 13 12 11 10 9 7 8 5 5 6 5 5 5 5 5 6 6 7 6 6 5 3 4
6 4 2 7 6 5 6 12 14 15 14 12 12 11 9 8 7 7 6 7 6 6 5 4 5 5 5 5 6 6 5 4 5
9 10 13 11 9 8 4 3 5 10 13 14 12 11 9 9 9 9 7 6 8 7 7 7 7 7 6 5 6 6 6 5 6
8 10 8 8 7 8 9 7 3 6 6 7 8 9 9 7 8 8 8 7 7 7 6 8 9 9 9 6 6 6 6 6 7
7 7 7 7 6 7 8 8 8 7 5 5 5 5 7 8 7 9 10 11 9 7 7 7 9 9 8 7 8 7 6 8 7
8 6 7 6 7 6 6 7 6 6 6 6 5 4 6 8 11 12 12 12 11 9 7 8 8 7 8 8 9 7 7 7 7
8 6 7 5 6 5 4 4 4 5 5 4 4 4 3 3 7 9 9 9 10 11 9 10 10 9 10 9 8 8 7 8 9
8 7 6 4 5 6 4 4 4 4 4 4 2 4 5 4 4 4 6 8 8 5 5 9 11 11 9 9 9 9 11 10 9
7 6 5 3 3 3 5 4 3 2 2 2 2 1 4 6 5 5 4 6 9 8 14 10 9 12 12 12 10 14 15 13 10
7 5 4 2 3 4 3 3 3 4 5 4 3 4 5 5 5 6 6 5 5 10 11 10 9 12 11 13 14 16 17 17 10
6 4 2 1 1 3 6 4 5 5 6 6 5 6 6 7 7 6 6 4 5 5 5 9 10 11 14 14 14 16 16 18 12
3 2 2 3 3 3 4 5 6 6 8 7 6 7 7 7 7 7 6 6 5 5 5 5 7 9 12 14 15 16 18 14 8
7 6 2 3 5 4 6 7 6 5 6 5 7 7 8 8 7 7 7 7 7 5 5 6 5 8 9 15 15 15 18 16 9
3 3 6 5 6 4 5 6 5 6 6 7 8 8 8 7 7 8 8 9 5 5 6 5 6 8 5 7 4 2 4 4 3
7 7 6 5 4 6 7 7 6 7 8 10 10 10 9 9 11 9 6 9 7 6 6 6 5 4 5 3 6 12 8 6 8
6 6 6 4 4 6 6 7 6 7 11 11 12 11 12 12 11 11 8 7 8 7 6 6 7 5 7 6 5 6 16 16 18
6 6 5 5 7 7 9 8 7 8 11 12 11 12 13 10 10 13 10 5 7 8 7 6 7 7 7 7 6 8 8 8 10
6 6 7 7 6 8 11 11 10 12 12 11 12 12 11 11 10 11 10 7 8 8 10 10 8 9 8 8 7 11 12 11 7
4 7 6 7 7 9 12 12 12 12 14 12 10 12 10 9 9 8 8 7 8 11 16 16 16 19 12 9 13 12 15 13 13
6 6 7 7 9 11 12 11 10 13 13 15 13 12 13 9 9 8 8 8 8 9 8 11 13 13 18 17 18 13 12 15 15
Wind_Direction
196 238 225 222 212 194 187 198 186 180 183 188 186 189 190 187 185 188 198 189 191 213 201 209 218 210 207 208 194 202 194 197 222
71 129 268 228 278 272 218 188 182 183 186 190 192 193 191 189 189 192 198 199 198 203 216 209 194 189 209 227 211 207 208 218 225
64 66 56 55 38 9 257 295 206 187 191 192 190 190 196 199 192 195 201 198 209 204 208 196 194 188 176 197 215 213 195 222 246
65 59 58 50 46 30 41 48 127 187 191 186 196 193 195 193 199 203 202 200 211 208 203 196 202 217 224 204 199 210 202 215 230
78 80 70 68 41 36 34 43 35 28 187 191 206 202 196 198 198 203 210 215 215 201 209 200 203 202 210 198 199 205 200 219 218
107 106 93 79 64 58 57 45 35 35 46 57 40 346 221 209 208 207 214 220 216 201 185 207 210 197 209 209 210 207 210 217 212
113 101 85 61 64 73 59 71 62 48 52 49 29 44 35 283 257 236 230 239 216 216 193 191 209 211 208 210 208 214 212 216 215
127 118 94 71 39 5 22 33 37 59 54 38 48 24 356 315 271 275 245 229 235 227 224 214 201 209 217 218 211 213 217 212 208
133 124 121 117 63 346 345 323 348 359 356 341 4 8 302 301 295 294 302 237 226 221 215 222 198 205 210 216 224 220 208 205 213
123 136 128 46 356 6 330 281 228 270 270 282 315 311 304 294 288 273 269 284 243 244 242 232 230 223 215 214 217 216 210 207 213
101 112 82 31 219 264 260 247 263 260 251 261 268 279 289 294 299 297 291 266 282 270 242 247 235 234 230 224 225 212 212 212 212
135 169 216 238 308 291 330 330 309 311 309 303 287 268 265 270 277 282 282 280 250 261 272 261 245 236 231 226 233 215 211 206 203
28 33 23 25 5 2 1 326 314 305 291 292 281 268 264 264 262 265 273 258 254 236 233 255 266 272 259 232 233 225 218 208 215
37 12 4 10 14 5 316 315 334 321 309 295 278 279 272 266 255 252 261 268 231 229 246 249 256 272 275 272 285 9 247 207 239
18 21 359 349 345 319 306 304 310 300 294 291 287 285 273 274 278 275 256 257 260 235 230 242 234 224 263 219 160 153 119 127 152
3 350 337 332 326 301 293 295 292 291 295 295 284 278 279 274 271 270 259 246 259 254 217 224 232 222 247 251 216 183 193 178 169
349 339 331 316 323 326 313 306 286 276 290 293 284 278 278 271 268 273 269 235 242 248 238 223 229 226 229 242 197 213 212 229 212
325 323 322 324 315 315 306 302 296 300 297 294 290 286 277 276 272 269 272 249 243 237 242 227 228 230 227 222 213 223 214 203 224
323 325 318 321 311 308 300 302 302 309 309 294 294 298 286 273 269 267 263 267 271 245 247 250 234 240 231 240 233 191 196 192 170
308 305 299 294 304 308 306 297 315 319 321 320 304 301 294 281 267 265 263 263 261 272 275 242 255 240 243 241 247 190 194 183 186